Regional Weather Roundup
Issued by NWS

Home | Current Version | Previous Version | Text Only | Print | Product List | Glossary Off
Versions: 1 2 3 4 5 6 7 8 9 10 11 12 13 14 15 16 17 18 19 20 21 22 23 24 25 26 27 28 29 30 31 32 33 34 35 36 37 38 39 40 41 42 43 44 45 46 47 48 49 50

000
ASUS43 KMPX 302301
RWRMN
WEATHER ROUNDUP FOR MINNESOTA
NATIONAL WEATHER SERVICE TWIN CITIES/CHANHASSEN MN
600 PM CDT SAT MAY 30 2015


NOTE: "FAIR" INDICATES FEW OR NO CLOUDS BELOW 12,000 FEET WITH NO
SIGNIFICANT WEATHER AND/OR OBSTRUCTIONS TO VISIBILITY. N/A MEANS
CURRENT SKY AND/OR WEATHER CONDITIONS ARE NOT AVAILABLE.

MNZ060>063-068>070-310000-
   Twin Cities Metro

CITY           SKY/WX    TMP DP  RH WIND       PRES   REMARKS
TWIN CITIES    MOSUNNY   63  41  44 NE12G26   30.22F
ST PAUL        SUNNY     62  42  47 NE9       30.23S
CRYSTAL        MOSUNNY   63  41  44 NE10      30.22S
BLAINE         MOSUNNY   64  41  42 NE9G16    30.23S
LAKEVILLE      SUNNY     61  41  48 NE13      30.22S
EDEN PRAIRIE   SUNNY     63  41  44 NE8       30.21F
SOUTH ST PAUL  SUNNY     63  40  42 NE9       30.22F
LAKE ELMO      FAIR      61  41  48 NE8G17    30.24S
$$
MNZ001>005-007-008-013>017-022>024-027-028-310000-
   Northwest Minnesota

CITY           SKY/WX    TMP DP  RH WIND       PRES   REMARKS
BEMIDJI        SUNNY     56  32  41 N8        30.29F
HALLOCK        SUNNY     55  25  30 CALM      30.33F
ROSEAU         SUNNY     55  34  44 SE8       30.34F
WARROAD        SUNNY     52  34  50 E8        30.35F
THIEF RVR FALL SUNNY     54  30  40 E7        30.32F
CROOKSTON      SUNNY     57  30  35 SE8       30.31F
FOSSTON        SUNNY     57  36  44 NE5       30.31F
DETROIT LAKES  SUNNY     59  32  36 NE5       30.28S
MOORHEAD       SUNNY     57  34  41 N8        30.29F
PARK RAPIDS    SUNNY     59  28  30 NE8       30.27F
MAHNOMEN       FAIR      57  28  33 NE6       30.29S
$$
MNZ006-009>011-018-025>026-310000-
   North Central Minnesota

CITY           SKY/WX    TMP DP  RH WIND       PRES   REMARKS
BAUDETTE       SUNNY     52  32  46 N10       30.33F
FLAG ISLAND    SUNNY     52  28  40 S3        30.34S
INTL FALLS     SUNNY     53  29  39 NE8       30.32F
WASKISH        SUNNY     55  37  50 W6        30.31F
BIG FORK       SUNNY     57  28  33 E3        30.30F
LONGVILLE      SUNNY     57  28  33 NE5       30.28S
GRAND RAPIDS   SUNNY     57  27  30 N6        30.29S
CRANE LAKE     SUNNY     54  27  35 N5        30.33F
ORR            SUNNY     55  25  30 CALM      30.29F
COOK           SUNNY     55  28  35 NE3       30.30F
WALKER         FAIR      56  28  35 E5        30.29S
$$
MNZ012-019>021-037-310000-
   Northeast Minnesota

CITY           SKY/WX    TMP DP  RH WIND       PRES   REMARKS
DULUTH         SUNNY     52  30  43 SE13      30.29S
HIBBING        SUNNY     58  28  32 N9        30.28F
EVELETH        SUNNY     57  30  35 NE6       30.30S
DULUTH HARBOR  SUNNY     48  39  71 NE13      30.31F
TWO HARBORS    SUNNY     54  34  47 SE8       30.29F
SILVER BAY     SUNNY     50  30  46 E5        30.30S
GRAND MARAIS     N/A     42  35  76 W6        30.34F
G MARAIS ARPRT SUNNY     45  28  53 SE6       30.31S
$$
MNZ029>031-032-039>041-046>048-054>057-064-310000-
   West Central Minnesota

CITY           SKY/WX    TMP DP  RH WIND       PRES   REMARKS
FERGUS FALLS   SUNNY     61  34  36 E6        30.27F
WHEATON        MOSUNNY   55  37  50 N7        30.29F
MORRIS         MOSUNNY   61  36  39 NE5       30.25F
ALEXANDRIA     SUNNY     60  33  36 MISG      30.27F
ELBOW LAKE     FAIR      58  36  43 E5        30.26F
WADENA         SUNNY     57  28  33 E7        30.27S
GLENWOOD       SUNNY     61  34  36 NE10      30.26F
APPLETON       MOSUNNY   63  37  39 NW7       30.25F
BENSON         SUNNY     61  34  36 NE3       30.25F
ORTONVILLE     MOSUNNY   57  39  51 N12       30.27F
MADISON        SUNNY     59  37  44 N7        30.26S
WILLMAR        FAIR      63  36  36 NE9G17    30.26S
$$
MNZ033>034-036-042>043-049>051-058-059-310000-
   Central Minnesota

CITY           SKY/WX    TMP DP  RH WIND       PRES   REMARKS
ST CLOUD       SUNNY     62  37  39 VRB5      30.24F
SAUK CENTRE    FAIR      59  33  36 NE9       30.25F
PAYNESVILLE    SUNNY     58  34  40 N10       30.25F
AITKIN         SUNNY     61  25  25 N7        30.25F
PINE RIVER     SUNNY     57  34  41 NE7       30.29F
BRAINERD       SUNNY     59  29  31 NE14      30.26F
STAPLES        SUNNY     57  30  35 N3        30.26F
LONG PRAIRIE   FAIR      59  32  36 N8        30.26F
LITTLE FALLS   SUNNY     59  30  33 NE3       30.26S
LITCHFIELD     SUNNY     63  37  39 NE9       30.24F
BUFFALO        SUNNY     62  33  33 N9        30.24F
MAPLE LAKE     SUNNY     63  37  37 NE8       30.24F
$$
MNZ037-044-045-052-053-310000-
   East Central Minnesota

CITY           SKY/WX    TMP DP  RH WIND       PRES   REMARKS
PRINCETON      SUNNY     63  34  34 NE9       30.24F HAZE
MORA           SUNNY     59  30  33 N3        30.27S
CAMBRIDGE      SUNNY     64  43  45 NE8       30.22F
RUSH CITY      SUNNY     61  34  36 NE6       30.25S
MOOSE LAKE     SUNNY     61  32  33 E5        30.24F
HINCKLEY       FAIR      61  32  33 E12       30.25S
CLOQUET        SUNNY     57  30  35 E8        30.27S
MCGREGOR       SUNNY     61  30  31 N8        30.27F
$$
MNZ071>073-080-081-089-090-097-098-310000-
   Southwest Minnesota

CITY           SKY/WX    TMP DP  RH WIND       PRES   REMARKS
MONTEVIDEO     SUNNY     63  36  36 NE5       30.25F
GRANITE FALLS  SUNNY     62  37  38 N7        30.25F
CANBY          SUNNY     59  41  50 N8        30.27F
MARSHALL       SUNNY     61  36  39 N12G17    30.24S
REDWOOD FALLS  SUNNY     64  35  34 NE8       30.22F
OLIVIA         SUNNY     59  32  36 NE7G17    30.23F
PIPESTONE      SUNNY     61  37  41 NE10      30.24S
WINDOM         SUNNY     63  39  42 N10       30.22F
WORTHINGTON    SUNNY     61  39  44 NE17      30.22F
JACKSON        SUNNY     63  41  45 NE13G20   30.22S
TRACY          SUNNY     62  39  42 NE9       30.23F
SLAYTON        SUNNY     59  38  44 N8        30.24F
$$
MNZ065>067-074>077-082>085-091>093-310000-
   South Central Minnesota

CITY           SKY/WX    TMP DP  RH WIND       PRES   REMARKS
MANKATO        SUNNY     63  41  45 NE16      30.21S
NEW ULM        SUNNY     63  37  39 NE9       30.22S
ST JAMES       SUNNY     64  41  42 N16       30.22F
FAIRMONT       SUNNY     63  39  42 NE13      30.21S
GLENCOE        SUNNY     63  43  47 NE6G17    30.22S
FARIBAULT      MOSUNNY   63  45  51 NE13      30.22S
OWATONNA       MOSUNNY   63  45  51 NE12G18   30.21S
WASECA         MOSUNNY   59  43  55 NE17      30.22F
ALBERT LEA     PTSUNNY   61  45  55 NE15      30.21S
$$
MNZ078>079-086>088-094>096-310000-
   Southeast Minnesota

CITY           SKY/WX    TMP DP  RH WIND       PRES   REMARKS
ROCHESTER      CLOUDY    57  45  64 N13       30.22S
RED WING       SUNNY     63  41  45 NE7       30.21F
STANTON        MOSUNNY   63  45  52 NE10      30.20F
DODGE CENTER   PTSUNNY   57  46  67 NE12G18   30.21F
WINONA         PTSUNNY   61  48  63 N6        30.19S
AUSTIN         PTSUNNY   55  46  71 N8        30.20S
PRESTON        CLOUDY    56  48  73 NE10G17   30.19S
$$
ABBREVIATIONS USED IN REMARKS
   TC - TEMPERATURES IN CELSIUS
  WCI - WIND CHILL INDEX
   HX - HEAT INDEX
  VSB - VISIBILITY
$$


USA.gov is the U.S. government's official web portal to all federal, state and local government web resources and services.